Tracking 19226 objects as of 23-Jul-2018
HD Live streaming from Space Station
objects crossing your sky now

FENGYUN 1C DEB

Track FENGYUN 1C DEB now!
10-day predictions


NORAD ID: 31420
Int'l Code: 1999-025BTG
Perigee: 682.5 km
Apogee: 900.0 km
Inclination: 97.5 °
Period: 100.5 minutes
Semi major axis: 7162 km
RCS: 0.006 m2 (small)
Launch date: May 10, 1999
Source: People's Republic of China (PRC)
Launch site: Taiyaun Space Center, China (TSC)

Note: This is SATELLITE DEBRIS
aabbcc
Your satellite tracking list
Your tracking list is empty




NASA's NSSDC Master Catalog

Two Line Element Set (TLE):
1 31420U 99025BTG 18203.36047719 +.00000220 +00000-0 +84631-4 0  9996
2 31420 097.5075 047.9053 0151805 272.3433 213.4008 14.32285580262823
Source of the keplerian elements: AFSPC